Regional Weather Roundup
Issued by NWS

Home | Current Version | Previous Version | Text Only | Print | Product List | Glossary On
Versions: 1 2 3 4 5 6 7 8 9 10 11 12 13 14 15 16 17 18 19 20 21 22 23 24 25 26 27 28 29 30 31 32 33 34 35 36 37 38 39 40 41 42 43 44 45 46 47 48 49 50
000
ASUS43 KFSD 272102
RWRSD

WEATHER ROUNDUP FOR SOUTH DAKOTA
NATIONAL WEATHER SERVICE SIOUX FALLS SD
400 PM CDT TUE SEP 27 2016

NOTE: "FAIR" INDICATES FEW OR NO CLOUDS BELOW 12,000 FEET WITH NO
SIGNIFICANT WEATHER AND/OR OBSTRUCTIONS TO VISIBILITY.


SDZ001>005-009-010-012>017-272200-
NORTHWEST AND NORTH CENTRAL SOUTH DAKOTA

CITY           SKY/WX    TMP DP  RH WIND       PRES   REMARKS
BUFFALO          N/A     83  39  21 NW18G24   29.91F
MOBRIDGE       SUNNY     79  42  26 N10       29.89F
$$

SDZ012>016-024>037-041>051-057-063-072>074-272200-
SOUTHWEST AND SOUTH CENTRAL SOUTH DAKOTA

CITY           SKY/WX    TMP DP  RH WIND       PRES   REMARKS
RAPID CTY ARPT SUNNY     84  45  25 N16       29.99F
PIERRE         SUNNY     80  42  25 N17G25    29.89F
CUSTER         SUNNY     76  33  21 W9G18     30.13S
ELLSWORTH AFB  SUNNY     83  44  25 N17G24    29.98F
PHILIP         SUNNY     84  40  21 N14G21    29.93F
PINE RIDGE     SUNNY     84  36  18 VRB6      30.00F
WINNER         FAIR      82  43  25 NW13      29.92F
$$

SDZ004>011-016>023-039-040-272200-
NORTHEAST SOUTH DAKOTA

CITY           SKY/WX    TMP DP  RH WIND       PRES   REMARKS
ABERDEEN       SUNNY     74  38  27 NW18G25   29.89F
WATERTOWN      SUNNY     69  35  28 NW16G26   29.87F
SISSETON         N/A     70  28  21 N21G30    29.85S
$$

SDZ017-020-022-023-036>040-048>070-272200-
SOUTHEAST SOUTH DAKOTA

CITY           SKY/WX    TMP DP  RH WIND       PRES   REMARKS
SIOUX FALLS    MOSUNNY   75  43  31 NW18      29.87F
HURON          SUNNY     76  41  28 NW17G26   29.88S
CHAMBERLAIN    SUNNY     80  46  29 NW14G20   29.91S
MITCHELL       SUNNY     79  41  25 N14G23    29.88F
YANKTON        SUNNY     75  45  33 W13G21    29.87F
$$

ABBREVIATIONS USED IN REMARKS
   TC - TEMPERATURE IN CELSIUS
  WCI - WIND CHILL INDEX
   HX - HEAT INDEX
  VSB - VISIBILITY





USA.gov is the U.S. government's official web portal to all federal, state and local government web resources and services.